| time (UTC) | temp F | wind direction | speed MPH | gust MPH | rain 1hr in | rain 24hr in | rain mn in | humidity % | barometer mb |
| 20260506080408 | 55 | 204 | 0.0 | 3.0 | 0.00 | 0.00 | 0.00 | 37 | |
| 20260506080240 | 55 | 214 | 0.0 | 2.0 | 0.00 | 0.00 | 0.00 | 37 | |
| 20260506073408 | 55 | 224 | 0.0 | 0.0 | 0.00 | 0.00 | 0.00 | 37 | |
| 20260506073139 | 56 | 224 | 0.0 | 0.0 | 0.00 | 0.00 | 0.00 | 36 | |
| 20260506072908 | 56 | 224 | 0.0 | 0.0 | 0.00 | 0.00 | 0.00 | 36 | |
| 20260506072815 | 56 | 223 | 0.0 | 0.0 | 0.00 | 0.00 | 0.00 | 37 | |
| 20260506072408 | 56 | 223 | 0.0 | 0.0 | 0.00 | 0.00 | 0.00 | 37 | |
| 20260506072145 | 56 | 224 | 0.0 | 0.0 | 0.00 | 0.00 | 0.00 | 37 | |
| 20260506071908 | 56 | 224 | 0.0 | 0.0 | 0.00 | 0.00 | 0.00 | 37 | |
| 20260506071647 | 56 | 219 | 0.0 | 0.0 | 0.00 | 0.00 | 0.00 | 37 | |
| 20260506071408 | 56 | 219 | 0.0 | 0.0 | 0.00 | 0.00 | 0.00 | 37 | |
| 20260506071240 | 56 | 212 | 0.0 | 0.0 | 0.00 | 0.00 | 0.00 | 37 | |
| 20260506070908 | 56 | 212 | 0.0 | 0.0 | 0.00 | 0.00 | 0.00 | 37 | |
| 20260506070642 | 56 | 220 | 0.0 | 0.0 | 0.00 | 0.00 | 0.00 | 37 | |
| 20260506070408 | 56 | 220 | 0.0 | 0.0 | 0.00 | 0.00 | 0.00 | 37 | |
| 20260506070114 | 57 | 226 | 0.0 | 0.0 | 0.00 | 0.00 | 0.00 | 37 | |
| 20260506062408 | 58 | 236 | 0.0 | 1.0 | 0.00 | 0.00 | 0.00 | 37 | |
| 20260506062259 | 59 | 248 | 0.0 | 6.0 | 0.00 | 0.00 | 0.00 | 37 | |
| 20260506061908 | 59 | 248 | 0.0 | 6.0 | 0.00 | 0.00 | 0.00 | 37 | |
| 20260506061656 | 59 | 251 | 0.0 | 6.0 | 0.00 | 0.00 | 0.00 | 37 | |
| 20260506061408 | 59 | 251 | 0.0 | 6.0 | 0.00 | 0.00 | 0.00 | 37 | |
| 20260506061400 | 59 | 256 | 1.0 | 6.0 | 0.00 | 0.00 | 0.00 | 36 | |
| 20260506060908 | 59 | 256 | 1.0 | 6.0 | 0.00 | 0.00 | 0.00 | 36 | |
| 20260506060607 | 59 | 253 | 0.0 | 7.0 | 0.00 | 0.00 | 0.00 | 36 | |
| 20260506060408 | 59 | 253 | 0.0 | 7.0 | 0.00 | 0.00 | 0.00 | 36 | |
| 20260506051408 | 59 | 242 | 0.0 | 0.0 | 0.00 | 0.00 | 0.00 | 36 | |
| 20260506051257 | 60 | 229 | 0.0 | 0.0 | 0.00 | 0.00 | 0.00 | 36 | |
| 20260506050908 | 60 | 229 | 0.0 | 0.0 | 0.00 | 0.00 | 0.00 | 36 | |
| 20260506050758 | 60 | 245 | 0.0 | 0.0 | 0.00 | 0.00 | 0.00 | 37 | |
| 20260506050408 | 60 | 245 | 0.0 | 0.0 | 0.00 | 0.00 | 0.00 | 37 | |
| 20260506050246 | 60 | 250 | 0.0 | 0.0 | 0.00 | 0.00 | 0.00 | 36 | |
| 20260506044908 | 61 | 269 | 0.0 | 0.0 | 0.00 | 0.00 | 0.00 | 36 | |
| 20260506044525 | 61 | 265 | 0.0 | 5.0 | 0.00 | 0.00 | 0.00 | 36 | |
| 20260506044410 | 61 | 265 | 0.0 | 5.0 | 0.00 | 0.00 | 0.00 | 36 | |
| 20260506044128 | 61 | 264 | 0.0 | 7.0 | 0.00 | 0.00 | 0.00 | 36 | |
| 20260506043908 | 61 | 264 | 0.0 | 7.0 | 0.00 | 0.00 | 0.00 | 36 | |
| 20260506043648 | 62 | 265 | 1.0 | 7.0 | 0.00 | 0.00 | 0.00 | 36 | |
| 20260506043408 | 62 | 265 | 1.0 | 7.0 | 0.00 | 0.00 | 0.00 | 36 | |
| 20260506043131 | 62 | 262 | 2.0 | 8.0 | 0.00 | 0.00 | 0.00 | 36 | |
| 20260506042908 | 62 | 262 | 2.0 | 8.0 | 0.00 | 0.00 | 0.00 | 36 | |
| 20260506042716 | 62 | 255 | 3.0 | 9.0 | 0.00 | 0.00 | 0.00 | 36 | |
| 20260506042408 | 62 | 255 | 3.0 | 9.0 | 0.00 | 0.00 | 0.00 | 36 | |
| 20260506042155 | 62 | 255 | 3.0 | 9.0 | 0.00 | 0.00 | 0.00 | 36 | |
| 20260506041908 | 62 | 255 | 3.0 | 9.0 | 0.00 | 0.00 | 0.00 | 36 | |
| 20260506041720 | 62 | 253 | 3.0 | 8.0 | 0.00 | 0.00 | 0.00 | 36 | |
| 20260506041408 | 62 | 253 | 3.0 | 8.0 | 0.00 | 0.00 | 0.00 | 36 | |
| 20260506041044 | 62 | 247 | 1.0 | 6.0 | 0.00 | 0.00 | 0.00 | 36 | |
| 20260506040910 | 62 | 247 | 1.0 | 6.0 | 0.00 | 0.00 | 0.00 | 36 | |
| 20260506040634 | 62 | 253 | 1.0 | 6.0 | 0.00 | 0.00 | 0.00 | 36 | |
| 20260506040408 | 62 | 253 | 1.0 | 6.0 | 0.00 | 0.00 | 0.00 | 36 | |
| 20260506040223 | 62 | 252 | 0.0 | 6.0 | 0.00 | 0.00 | 0.00 | 36 | |
| 20260506035908 | 62 | 252 | 0.0 | 6.0 | 0.00 | 0.00 | 0.00 | 36 | |
| 20260506035733 | 62 | 239 | 0.0 | 0.0 | 0.00 | 0.00 | 0.00 | 36 | |
| 20260506035408 | 62 | 239 | 0.0 | 0.0 | 0.00 | 0.00 | 0.00 | 36 | |
| 20260506035231 | 63 | 234 | 0.0 | 2.0 | 0.00 | 0.00 | 0.00 | 36 | |
| 20260506034908 | 63 | 234 | 0.0 | 2.0 | 0.00 | 0.00 | 0.00 | 36 | |
| 20260506034655 | 63 | 238 | 0.0 | 2.0 | 0.00 | 0.00 | 0.00 | 36 | |
| 20260506034408 | 63 | 238 | 0.0 | 2.0 | 0.00 | 0.00 | 0.00 | 36 | |
| 20260506034201 | 63 | 261 | 0.0 | 1.0 | 0.00 | 0.00 | 0.00 | 36 | |
| 20260506033908 | 63 | 261 | 0.0 | 1.0 | 0.00 | 0.00 | 0.00 | 36 | |
| 20260506033556 | 63 | 262 | 0.0 | 8.0 | 0.00 | 0.00 | 0.00 | 36 | |
| 20260506033409 | 63 | 262 | 0.0 | 8.0 | 0.00 | 0.00 | 0.00 | 36 | |
| 20260506033216 | 64 | 257 | 2.0 | 8.0 | 0.00 | 0.00 | 0.00 | 36 | |
| 20260506032908 | 64 | 257 | 2.0 | 8.0 | 0.00 | 0.00 | 0.00 | 36 | |
| 20260506032733 | 64 | 260 | 2.0 | 9.0 | 0.00 | 0.00 | 0.00 | 36 | |
| 20260506032408 | 64 | 260 | 2.0 | 9.0 | 0.00 | 0.00 | 0.00 | 36 | |
| 20260506032110 | 64 | 259 | 3.0 | 9.0 | 0.00 | 0.00 | 0.00 | 36 | |
| 20260506031908 | 64 | 259 | 3.0 | 9.0 | 0.00 | 0.00 | 0.00 | 36 | |
| 20260506031732 | 64 | 265 | 4.0 | 9.0 | 0.00 | 0.00 | 0.00 | 36 | |
| 20260506031408 | 64 | 265 | 4.0 | 9.0 | 0.00 | 0.00 | 0.00 | 36 | |
| 20260506031150 | 64 | 264 | 4.0 | 10.0 | 0.00 | 0.00 | 0.00 | 36 | |
| 20260506030908 | 64 | 264 | 4.0 | 10.0 | 0.00 | 0.00 | 0.00 | 36 | |
| 20260506030638 | 64 | 263 | 6.0 | 10.0 | 0.00 | 0.00 | 0.00 | 36 | |
| 20260506030408 | 64 | 263 | 6.0 | 10.0 | 0.00 | 0.00 | 0.00 | 36 | |
| 20260506030205 | 64 | 262 | 6.0 | 10.0 | 0.00 | 0.00 | 0.00 | 36 | |
| 20260506025733 | 64 | 258 | 5.0 | 12.0 | 0.00 | 0.00 | 0.00 | 36 | |
| 20260506025408 | 64 | 258 | 5.0 | 12.0 | 0.00 | 0.00 | 0.00 | 36 | |
| 20260506025209 | 64 | 256 | 8.0 | 12.0 | 0.00 | 0.00 | 0.00 | 36 | |
| 20260506024908 | 64 | 256 | 8.0 | 12.0 | 0.00 | 0.00 | 0.00 | 36 | |
| 20260506024655 | 64 | 266 | 6.0 | 10.0 | 0.00 | 0.00 | 0.00 | 36 | |
| 20260506024408 | 64 | 266 | 6.0 | 10.0 | 0.00 | 0.00 | 0.00 | 36 | |
| 20260506024103 | 65 | 263 | 6.0 | 12.0 | 0.00 | 0.00 | 0.00 | 36 | |
| 20260506023908 | 65 | 263 | 6.0 | 12.0 | 0.00 | 0.00 | 0.00 | 36 | |
| 20260506023638 | 65 | 263 | 8.0 | 14.0 | 0.00 | 0.00 | 0.00 | 36 | |
| 20260506023408 | 65 | 263 | 8.0 | 14.0 | 0.00 | 0.00 | 0.00 | 36 | |
| 20260506023202 | 65 | 266 | 7.0 | 14.0 | 0.00 | 0.00 | 0.00 | 36 | |
| 20260506022908 | 65 | 266 | 7.0 | 14.0 | 0.00 | 0.00 | 0.00 | 36 | |
| 20260506022649 | 65 | 262 | 7.0 | 13.0 | 0.00 | 0.00 | 0.00 | 36 | |
| 20260506022408 | 65 | 262 | 7.0 | 13.0 | 0.00 | 0.00 | 0.00 | 36 | |
| 20260506022145 | 65 | 275 | 8.0 | 13.0 | 0.00 | 0.00 | 0.00 | 36 | |
| 20260506021908 | 65 | 275 | 8.0 | 13.0 | 0.00 | 0.00 | 0.00 | 36 | |
| 20260506021644 | 65 | 276 | 5.0 | 13.0 | 0.00 | 0.00 | 0.00 | 36 | |
| 20260506021408 | 65 | 276 | 5.0 | 13.0 | 0.00 | 0.00 | 0.00 | 36 | |
| 20260506021143 | 66 | 274 | 5.0 | 11.0 | 0.00 | 0.00 | 0.00 | 36 | |
| 20260506020908 | 66 | 274 | 5.0 | 11.0 | 0.00 | 0.00 | 0.00 | 36 | |
| 20260506020608 | 67 | 271 | 6.0 | 13.0 | 0.00 | 0.00 | 0.00 | 36 | |
| 20260506020408 | 67 | 271 | 6.0 | 13.0 | 0.00 | 0.00 | 0.00 | 36 | |
| 20260506020116 | 68 | 267 | 7.0 | 14.0 | 0.00 | 0.00 | 0.00 | 36 | |
| 20260506015908 | 68 | 267 | 7.0 | 14.0 | 0.00 | 0.00 | 0.00 | 36 | |
| 20260506015757 | 69 | 266 | 8.0 | 15.0 | 0.00 | 0.00 | 0.00 | 36 | |
| 20260506015408 | 69 | 266 | 8.0 | 15.0 | 0.00 | 0.00 | 0.00 | 36 | |
| 20260506015257 | 70 | 274 | 8.0 | 15.0 | 0.00 | 0.00 | 0.00 | 36 | |
| 20260506014908 | 70 | 274 | 8.0 | 15.0 | 0.00 | 0.00 | 0.00 | 36 | |
| 20260506014614 | 71 | 268 | 7.0 | 19.0 | 0.00 | 0.00 | 0.00 | 36 | |
| 20260506014408 | 71 | 268 | 7.0 | 19.0 | 0.00 | 0.00 | 0.00 | 36 | |
| 20260506014220 | 72 | 265 | 10.0 | 19.0 | 0.00 | 0.00 | 0.00 | 36 | |
| 20260506013908 | 72 | 265 | 10.0 | 19.0 | 0.00 | 0.00 | 0.00 | 36 | |
| 20260506013702 | 72 | 250 | 8.0 | 15.0 | 0.00 | 0.00 | 0.00 | 36 | |
| 20260506013408 | 72 | 250 | 8.0 | 15.0 | 0.00 | 0.00 | 0.00 | 36 | |
| 20260506013207 | 72 | 262 | 9.0 | 15.0 | 0.00 | 0.00 | 0.00 | 36 | |
| 20260506012908 | 72 | 262 | 9.0 | 15.0 | 0.00 | 0.00 | 0.00 | 36 | |
| 20260506012748 | 73 | 257 | 8.0 | 16.0 | 0.00 | 0.00 | 0.00 | 36 | |
| 20260506012408 | 73 | 257 | 8.0 | 16.0 | 0.00 | 0.00 | 0.00 | 36 | |
| 20260506012157 | 73 | 258 | 10.0 | 16.0 | 0.00 | 0.00 | 0.00 | 36 | |
| 20260506011908 | 73 | 258 | 10.0 | 16.0 | 0.00 | 0.00 | 0.00 | 36 | |
| 20260506011654 | 72 | 269 | 10.0 | 16.0 | 0.00 | 0.00 | 0.00 | 36 | |
| 20260506011408 | 72 | 269 | 10.0 | 16.0 | 0.00 | 0.00 | 0.00 | 36 | |
| 20260506011212 | 72 | 252 | 10.0 | 17.0 | 0.00 | 0.00 | 0.00 | 36 | |
| 20260506010908 | 72 | 252 | 10.0 | 17.0 | 0.00 | 0.00 | 0.00 | 36 | |
| 20260506010630 | 73 | 254 | 11.0 | 19.0 | 0.00 | 0.00 | 0.00 | 36 | |
| 20260506010408 | 73 | 254 | 11.0 | 19.0 | 0.00 | 0.00 | 0.00 | 36 | |
| 20260506010210 | 74 | 246 | 12.0 | 19.0 | 0.00 | 0.00 | 0.00 | 36 | |
| 20260506005908 | 74 | 246 | 12.0 | 19.0 | 0.00 | 0.00 | 0.00 | 36 | |
| 20260506005640 | 74 | 257 | 11.0 | 17.0 | 0.00 | 0.00 | 0.00 | 36 | |
| 20260506005408 | 74 | 257 | 11.0 | 17.0 | 0.00 | 0.00 | 0.00 | 36 | |
| 20260506005139 | 73 | 265 | 8.0 | 15.0 | 0.00 | 0.00 | 0.00 | 36 | |
| 20260506004908 | 73 | 265 | 8.0 | 15.0 | 0.00 | 0.00 | 0.00 | 36 | |
| 20260506004555 | 73 | 246 | 9.0 | 15.0 | 0.00 | 0.00 | 0.00 | 36 | |
| 20260506004408 | 73 | 246 | 9.0 | 15.0 | 0.00 | 0.00 | 0.00 | 36 | |
| 20260506004124 | 74 | 261 | 9.0 | 17.0 | 0.00 | 0.00 | 0.00 | 37 | |
| 20260506003908 | 74 | 261 | 9.0 | 17.0 | 0.00 | 0.00 | 0.00 | 37 | |
| 20260506003601 | 74 | 253 | 10.0 | 19.0 | 0.00 | 0.00 | 0.00 | 36 | |
| 20260506003408 | 74 | 253 | 10.0 | 19.0 | 0.00 | 0.00 | 0.00 | 36 | |
| 20260506003137 | 74 | 256 | 11.0 | 19.0 | 0.00 | 0.00 | 0.00 | 36 | |
| 20260506002908 | 74 | 256 | 11.0 | 19.0 | 0.00 | 0.00 | 0.00 | 36 | |
| 20260506002640 | 73 | 275 | 6.0 | 13.0 | 0.00 | 0.00 | 0.00 | 36 | |
| 20260506002409 | 73 | 275 | 6.0 | 13.0 | 0.00 | 0.00 | 0.00 | 36 | |
| 20260506002133 | 72 | 260 | 9.0 | 14.0 | 0.00 | 0.00 | 0.00 | 36 | |
| 20260506001908 | 72 | 260 | 9.0 | 14.0 | 0.00 | 0.00 | 0.00 | 36 | |
| 20260506001719 | 73 | 258 | 8.0 | 16.0 | 0.00 | 0.00 | 0.00 | 36 | |
| 20260506001408 | 73 | 258 | 8.0 | 16.0 | 0.00 | 0.00 | 0.00 | 36 | |
| 20260506001220 | 74 | 242 | 10.0 | 16.0 | 0.00 | 0.00 | 0.00 | 36 | |
| 20260506000908 | 74 | 242 | 10.0 | 16.0 | 0.00 | 0.00 | 0.00 | 36 | |
| 20260506000602 | 76 | 242 | 10.0 | 16.0 | 0.00 | 0.00 | 0.00 | 36 | |
| 20260506000408 | 76 | 242 | 10.0 | 16.0 | 0.00 | 0.00 | 0.00 | 36 | |
| 20260506000149 | 77 | 235 | 10.0 | 16.0 | 0.00 | 0.00 | 0.00 | 37 | |
| 20260505235908 | 77 | 235 | 10.0 | 16.0 | 0.00 | 0.00 | 0.00 | 37 | |
| 20260505235705 | 76 | 264 | 9.0 | 16.0 | 0.00 | 0.00 | 0.00 | 37 | |
| 20260505235408 | 76 | 264 | 9.0 | 16.0 | 0.00 | 0.00 | 0.00 | 37 | |
| 20260505235129 | 76 | 243 | 9.0 | 17.0 | 0.00 | 0.00 | 0.00 | 36 | |
| 20260505234908 | 76 | 243 | 9.0 | 17.0 | 0.00 | 0.00 | 0.00 | 36 | |
| 20260505234655 | 77 | 231 | 11.0 | 17.0 | 0.00 | 0.00 | 0.00 | 36 | |
| 20260505234408 | 77 | 231 | 11.0 | 17.0 | 0.00 | 0.00 | 0.00 | 36 | |
| 20260505234217 | 76 | 241 | 10.0 | 17.0 | 0.00 | 0.00 | 0.00 | 36 | |
| 20260505233908 | 76 | 241 | 10.0 | 17.0 | 0.00 | 0.00 | 0.00 | 36 | |
| 20260505233630 | 76 | 266 | 10.0 | 21.0 | 0.00 | 0.00 | 0.00 | 36 | |
| 20260505233408 | 76 | 266 | 10.0 | 21.0 | 0.00 | 0.00 | 0.00 | 36 | |
| 20260505233220 | 77 | 263 | 12.0 | 21.0 | 0.00 | 0.00 | 0.00 | 36 | |
| 20260505232908 | 77 | 263 | 12.0 | 21.0 | 0.00 | 0.00 | 0.00 | 36 | |
| 20260505232724 | 78 | 252 | 9.0 | 17.0 | 0.00 | 0.00 | 0.00 | 36 | |
| 20260505232409 | 78 | 252 | 9.0 | 17.0 | 0.00 | 0.00 | 0.00 | 36 | |
| 20260505232245 | 77 | 240 | 11.0 | 17.0 | 0.00 | 0.00 | 0.00 | 36 | |
| 20260505231908 | 77 | 240 | 11.0 | 17.0 | 0.00 | 0.00 | 0.00 | 36 | |
| 20260505231708 | 76 | 237 | 10.0 | 17.0 | 0.00 | 0.00 | 0.00 | 36 | |
| 20260505231408 | 76 | 237 | 10.0 | 17.0 | 0.00 | 0.00 | 0.00 | 36 | |
| 20260505231131 | 75 | 223 | 11.0 | 18.0 | 0.00 | 0.00 | 0.00 | 36 | |
| 20260505230908 | 75 | 223 | 11.0 | 18.0 | 0.00 | 0.00 | 0.00 | 36 | |
| 20260505230559 | 76 | 226 | 12.0 | 19.0 | 0.00 | 0.00 | 0.00 | 36 | |
| 20260505230408 | 76 | 226 | 12.0 | 19.0 | 0.00 | 0.00 | 0.00 | 36 | |
| 20260505230226 | 76 | 233 | 12.0 | 19.0 | 0.00 | 0.00 | 0.00 | 36 | |
| 20260505225908 | 76 | 233 | 12.0 | 19.0 | 0.00 | 0.00 | 0.00 | 36 | |
| 20260505225639 | 77 | 235 | 11.0 | 16.0 | 0.00 | 0.00 | 0.00 | 36 | |
| 20260505225408 | 77 | 235 | 11.0 | 16.0 | 0.00 | 0.00 | 0.00 | 36 | |
| 20260505225041 | 78 | 243 | 9.0 | 18.0 | 0.00 | 0.00 | 0.00 | 36 | |
| 20260505224909 | 78 | 243 | 9.0 | 18.0 | 0.00 | 0.00 | 0.00 | 36 | |
| 20260505224634 | 78 | 238 | 11.0 | 18.0 | 0.00 | 0.00 | 0.00 | 36 | |
| 20260505224408 | 78 | 238 | 11.0 | 18.0 | 0.00 | 0.00 | 0.00 | 36 | |
| 20260505224136 | 78 | 264 | 10.0 | 18.0 | 0.00 | 0.00 | 0.00 | 37 | |
| 20260505223908 | 78 | 264 | 10.0 | 18.0 | 0.00 | 0.00 | 0.00 | 37 | |
| 20260505223623 | 78 | 246 | 12.0 | 18.0 | 0.00 | 0.00 | 0.00 | 37 | |
| 20260505223408 | 78 | 246 | 12.0 | 18.0 | 0.00 | 0.00 | 0.00 | 37 | |
| 20260505223137 | 78 | 245 | 11.0 | 20.0 | 0.00 | 0.00 | 0.00 | 37 | |
| 20260505222908 | 78 | 245 | 11.0 | 20.0 | 0.00 | 0.00 | 0.00 | 37 | |
| 20260505222652 | 78 | 250 | 12.0 | 20.0 | 0.00 | 0.00 | 0.00 | 37 | |
| 20260505222408 | 78 | 250 | 12.0 | 20.0 | 0.00 | 0.00 | 0.00 | 37 | |
| 20260505222212 | 78 | 244 | 12.0 | 20.0 | 0.00 | 0.00 | 0.00 | 37 | |
| 20260505221908 | 78 | 244 | 12.0 | 20.0 | 0.00 | 0.00 | 0.00 | 37 | |
| 20260505221655 | 77 | 237 | 12.0 | 20.0 | 0.00 | 0.00 | 0.00 | 37 | |
| 20260505221409 | 77 | 237 | 12.0 | 20.0 | 0.00 | 0.00 | 0.00 | 37 | |
| 20260505221033 | 76 | 247 | 11.0 | 21.0 | 0.00 | 0.00 | 0.00 | 37 | |
| 20260505220908 | 76 | 247 | 11.0 | 21.0 | 0.00 | 0.00 | 0.00 | 37 | |
| 20260505220453 | 77 | 255 | 11.0 | 21.0 | 0.00 | 0.00 | 0.00 | 37 | |
| 20260505220408 | 77 | 255 | 11.0 | 21.0 | 0.00 | 0.00 | 0.00 | 37 | |
| 20260505215910 | 77 | 251 | 12.0 | 21.0 | 0.00 | 0.00 | 0.00 | 37 | |
| 20260505215408 | 75 | 248 | 11.0 | 21.0 | 0.00 | 0.00 | 0.00 | 37 | |
| 20260505214908 | 74 | 261 | 10.0 | 19.0 | 0.00 | 0.00 | 0.00 | 37 | |
| 20260505214409 | 73 | 250 | 10.0 | 21.0 | 0.00 | 0.00 | 0.00 | 37 | |
| 20260505212910 | 73 | 264 | 12.0 | 18.0 | 0.00 | 0.00 | 0.00 | 37 | |
| 20260505212502 | 72 | 265 | 11.0 | 18.0 | 0.00 | 0.00 | 0.00 | 38 | |
| 20260505212413 | 72 | 265 | 11.0 | 18.0 | 0.00 | 0.00 | 0.00 | 38 | |
| 20260505211956 | 72 | 248 | 9.0 | 16.0 | 0.00 | 0.00 | 0.00 | 38 | |
| 20260505210911 | 73 | 228 | 11.0 | 16.0 | 0.00 | 0.00 | 0.00 | 38 | |
| 20260505205409 | 73 | 223 | 10.0 | 15.0 | 0.00 | 0.00 | 0.00 | 38 | |
| 20260505204909 | 73 | 218 | 10.0 | 18.0 | 0.00 | 0.00 | 0.00 | 38 | |
| 20260505204502 | 73 | 225 | 11.0 | 18.0 | 0.00 | 0.00 | 0.00 | 38 | |
| 20260505204409 | 73 | 225 | 11.0 | 18.0 | 0.00 | 0.00 | 0.00 | 38 | |
| 20260505203915 | 74 | 226 | 9.0 | 14.0 | 0.00 | 0.00 | 0.00 | 38 | |
| 20260505202909 | 74 | 250 | 9.0 | 16.0 | 0.00 | 0.00 | 0.00 | 38 | |
| 20260505201643 | 74 | 250 | 5.0 | 10.0 | 0.00 | 0.00 | 0.00 | 39 | |
| 20260505201408 | 74 | 250 | 5.0 | 10.0 | 0.00 | 0.00 | 0.00 | 39 | |
| 20260505201051 | 74 | 307 | 3.0 | 8.0 | 0.00 | 0.00 | 0.00 | 40 | |
| 20260505200908 | 74 | 307 | 3.0 | 8.0 | 0.00 | 0.00 | 0.00 | 40 | |
| 20260505200634 | 74 | 280 | 5.0 | 9.0 | 0.00 | 0.00 | 0.00 | 40 | |
| 20260505200409 | 74 | 280 | 5.0 | 9.0 | 0.00 | 0.00 | 0.00 | 40 | |
| 20260505200139 | 74 | 303 | 4.0 | 9.0 | 0.00 | 0.00 | 0.00 | 40 | |
| 20260505195908 | 74 | 303 | 4.0 | 9.0 | 0.00 | 0.00 | 0.00 | 40 | |
| 20260505195637 | 75 | 348 | 3.0 | 9.0 | 0.00 | 0.00 | 0.00 | 42 | |
| 20260505195408 | 75 | 348 | 3.0 | 9.0 | 0.00 | 0.00 | 0.00 | 42 | |
| 20260505195322 | 76 | 261 | 4.0 | 9.0 | 0.00 | 0.00 | 0.00 | 40 | |
| 20260505194908 | 76 | 261 | 4.0 | 9.0 | 0.00 | 0.00 | 0.00 | 40 | |
| 20260505194548 | 76 | 320 | 3.0 | 8.0 | 0.00 | 0.00 | 0.00 | 41 | |
| 20260505194408 | 76 | 320 | 3.0 | 8.0 | 0.00 | 0.00 | 0.00 | 41 | |
| 20260505194220 | 74 | 313 | 3.0 | 8.0 | 0.00 | 0.00 | 0.00 | 41 | |
| 20260505193908 | 74 | 313 | 3.0 | 8.0 | 0.00 | 0.00 | 0.00 | 41 | |
| 20260505193627 | 74 | 312 | 3.0 | 6.0 | 0.00 | 0.00 | 0.00 | 42 | |
| 20260505193408 | 74 | 312 | 3.0 | 6.0 | 0.00 | 0.00 | 0.00 | 42 | |
| 20260505193223 | 74 | 314 | 3.0 | 6.0 | 0.00 | 0.00 | 0.00 | 40 | |
| 20260505192908 | 74 | 314 | 3.0 | 6.0 | 0.00 | 0.00 | 0.00 | 40 | |
| 20260505192721 | 75 | 324 | 3.0 | 9.0 | 0.00 | 0.00 | 0.00 | 39 | |
| 20260505192640 | 75 | 324 | 3.0 | 9.0 | 0.00 | 0.00 | 0.00 | 39 | |
| 20260505192408 | 75 | 324 | 3.0 | 9.0 | 0.00 | 0.00 | 0.00 | 39 | |
| 20260505192316 | 75 | 313 | 4.0 | 10.0 | 0.00 | 0.00 | 0.00 | 40 | |
| 20260505191908 | 75 | 313 | 4.0 | 10.0 | 0.00 | 0.00 | 0.00 | 40 | |
| 20260505191721 | 74 | 315 | 3.0 | 10.0 | 0.00 | 0.00 | 0.00 | 40 | |
| 20260505191408 | 74 | 315 | 3.0 | 10.0 | 0.00 | 0.00 | 0.00 | 40 | |
| 20260505191244 | 74 | 316 | 4.0 | 9.0 | 0.00 | 0.00 | 0.00 | 40 | |
| 20260505190909 | 74 | 316 | 4.0 | 9.0 | 0.00 | 0.00 | 0.00 | 40 | |
| 20260505190720 | 74 | 303 | 4.0 | 10.0 | 0.00 | 0.00 | 0.00 | 39 | |
| 20260505190408 | 74 | 303 | 4.0 | 10.0 | 0.00 | 0.00 | 0.00 | 39 | |
| 20260505185757 | 75 | 317 | 2.0 | 6.0 | 0.00 | 0.00 | 0.00 | 41 | |
| 20260505185408 | 75 | 317 | 2.0 | 6.0 | 0.00 | 0.00 | 0.00 | 41 | |
| 20260505185256 | 76 | 303 | 3.0 | 6.0 | 0.00 | 0.00 | 0.00 | 42 | |
| 20260505184908 | 76 | 303 | 3.0 | 6.0 | 0.00 | 0.00 | 0.00 | 42 | |
| 20260505184658 | 74 | 310 | 3.0 | 6.0 | 0.00 | 0.00 | 0.00 | 42 | |
| 20260505184408 | 74 | 310 | 3.0 | 6.0 | 0.00 | 0.00 | 0.00 | 42 | |
| 20260505183637 | 74 | 317 | 3.0 | 7.0 | 0.00 | 0.00 | 0.00 | 39 | |
| 20260505183408 | 74 | 317 | 3.0 | 7.0 | 0.00 | 0.00 | 0.00 | 39 | |
| 20260505183259 | 74 | 264 | 4.0 | 7.0 | 0.00 | 0.00 | 0.00 | 39 | |
| 20260505182908 | 74 | 264 | 4.0 | 7.0 | 0.00 | 0.00 | 0.00 | 39 | |
| 20260505182812 | 73 | 315 | 3.0 | 7.0 | 0.00 | 0.00 | 0.00 | 38 | |
| 20260505182408 | 73 | 315 | 3.0 | 7.0 | 0.00 | 0.00 | 0.00 | 38 | |
| 20260505182146 | 73 | 317 | 3.0 | 7.0 | 0.00 | 0.00 | 0.00 | 39 | |
| 20260505181908 | 73 | 317 | 3.0 | 7.0 | 0.00 | 0.00 | 0.00 | 39 | |
| 20260505181639 | 74 | 262 | 4.0 | 8.0 | 0.00 | 0.00 | 0.00 | 39 | |
| 20260505181408 | 74 | 262 | 4.0 | 8.0 | 0.00 | 0.00 | 0.00 | 39 | |
| 20260505181258 | 75 | 270 | 3.0 | 8.0 | 0.00 | 0.00 | 0.00 | 39 | |
| 20260505180908 | 75 | 270 | 3.0 | 8.0 | 0.00 | 0.00 | 0.00 | 39 | |
| 20260505180714 | 75 | 318 | 2.0 | 7.0 | 0.00 | 0.00 | 0.00 | 41 | |
| 20260505180408 | 75 | 318 | 2.0 | 7.0 | 0.00 | 0.00 | 0.00 | 41 | |
| 20260505180220 | 74 | 225 | 4.0 | 7.0 | 0.00 | 0.00 | 0.00 | 39 | |
| 20260505175909 | 74 | 225 | 4.0 | 7.0 | 0.00 | 0.00 | 0.00 | 39 | |
| 20260505175744 | 74 | 233 | 3.0 | 5.0 | 0.00 | 0.00 | 0.00 | 43 | |
| 20260505175408 | 74 | 233 | 3.0 | 5.0 | 0.00 | 0.00 | 0.00 | 43 | |
| 20260505175221 | 74 | 85 | 2.0 | 5.0 | 0.00 | 0.00 | 0.00 | 50 | |
| 20260505174908 | 74 | 85 | 2.0 | 5.0 | 0.00 | 0.00 | 0.00 | 50 | |
| 20260505174658 | 72 | 181 | 2.0 | 5.0 | 0.00 | 0.00 | 0.00 | 46 | |
| 20260505174408 | 72 | 181 | 2.0 | 5.0 | 0.00 | 0.00 | 0.00 | 46 | |
| 20260505174202 | 71 | 6 | 1.0 | 6.0 | 0.00 | 0.00 | 0.00 | 49 | |
| 20260505173908 | 71 | 6 | 1.0 | 6.0 | 0.00 | 0.00 | 0.00 | 49 | |
| 20260505173633 | 72 | 302 | 1.0 | 6.0 | 0.00 | 0.00 | 0.00 | 46 | |
| 20260505173408 | 72 | 302 | 1.0 | 6.0 | 0.00 | 0.00 | 0.00 | 46 | |
| 20260505173233 | 72 | 314 | 2.0 | 6.0 | 0.00 | 0.00 | 0.00 | 45 | |
| 20260505172908 | 72 | 314 | 2.0 | 6.0 | 0.00 | 0.00 | 0.00 | 45 | |
| 20260505172653 | 71 | 4 | 1.0 | 4.0 | 0.00 | 0.00 | 0.00 | 47 | |
| 20260505172408 | 71 | 4 | 1.0 | 4.0 | 0.00 | 0.00 | 0.00 | 47 | |
| 20260505172050 | 71 | 1 | 1.0 | 6.0 | 0.00 | 0.00 | 0.00 | 46 | |
| 20260505171908 | 71 | 1 | 1.0 | 6.0 | 0.00 | 0.00 | 0.00 | 46 | |
| 20260505171716 | 72 | 242 | 3.0 | 6.0 | 0.00 | 0.00 | 0.00 | 40 | |
| 20260505171408 | 72 | 242 | 3.0 | 6.0 | 0.00 | 0.00 | 0.00 | 40 | |
| 20260505171238 | 71 | 264 | 3.0 | 5.0 | 0.00 | 0.00 | 0.00 | 41 | |
| 20260505170908 | 71 | 264 | 3.0 | 5.0 | 0.00 | 0.00 | 0.00 | 41 | |
| 20260505170741 | 71 | 307 | 2.0 | 4.0 | 0.00 | 0.00 | 0.00 | 44 | |
| 20260505170408 | 71 | 307 | 2.0 | 4.0 | 0.00 | 0.00 | 0.00 | 44 | |
| 20260505170211 | 70 | 306 | 1.0 | 3.0 | 0.00 | 0.00 | 0.00 | 44 | |
| 20260505165908 | 70 | 306 | 1.0 | 3.0 | 0.00 | 0.00 | 0.00 | 44 | |
| 20260505165631 | 67 | 132 | 1.0 | 3.0 | 0.00 | 0.00 | 0.00 | 44 | |
| 20260505165408 | 67 | 132 | 1.0 | 3.0 | 0.00 | 0.00 | 0.00 | 44 | |
| 20260505165254 | 66 | 224 | 1.0 | 4.0 | 0.00 | 0.00 | 0.00 | 40 | |
| 20260505164908 | 66 | 224 | 1.0 | 4.0 | 0.00 | 0.00 | 0.00 | 40 | |
| 20260505164652 | 64 | 264 | 1.0 | 4.0 | 0.00 | 0.00 | 0.00 | 39 | |
| 20260505164408 | 64 | 264 | 1.0 | 4.0 | 0.00 | 0.00 | 0.00 | 39 | |
| 20260505164222 | 64 | 275 | 1.0 | 5.0 | 0.00 | 0.00 | 0.00 | 39 | |
| 20260505163908 | 64 | 275 | 1.0 | 5.0 | 0.00 | 0.00 | 0.00 | 39 | |
| 20260505163756 | 64 | 264 | 3.0 | 5.0 | 0.00 | 0.00 | 0.00 | 39 | |
| 20260505163408 | 64 | 264 | 3.0 | 5.0 | 0.00 | 0.00 | 0.00 | 39 | |
| 20260505163220 | 64 | 275 | 2.0 | 4.0 | 0.00 | 0.00 | 0.00 | 39 | |
| 20260505162908 | 64 | 275 | 2.0 | 4.0 | 0.00 | 0.00 | 0.00 | 39 | |
| 20260505162714 | 64 | 270 | 2.0 | 4.0 | 0.00 | 0.00 | 0.00 | 39 | |
| 20260505162408 | 64 | 270 | 2.0 | 4.0 | 0.00 | 0.00 | 0.00 | 39 | |
| 20260505162327 | 64 | 281 | 2.0 | 5.0 | 0.00 | 0.00 | 0.00 | 39 | |
| 20260505161908 | 64 | 281 | 2.0 | 5.0 | 0.00 | 0.00 | 0.00 | 39 | |
| 20260505161817 | 64 | 251 | 3.0 | 5.0 | 0.00 | 0.00 | 0.00 | 39 | |
| 20260505161408 | 64 | 251 | 3.0 | 5.0 | 0.00 | 0.00 | 0.00 | 39 | |
| 20260505161258 | 64 | 247 | 3.0 | 4.0 | 0.00 | 0.00 | 0.00 | 39 | |
| 20260505160908 | 64 | 247 | 3.0 | 4.0 | 0.00 | 0.00 | 0.00 | 39 | |
| 20260505160647 | 64 | 266 | 1.0 | 3.0 | 0.00 | 0.00 | 0.00 | 39 | |
| 20260505160408 | 64 | 266 | 1.0 | 3.0 | 0.00 | 0.00 | 0.00 | 39 | |
| 20260505160311 | 64 | 263 | 1.0 | 3.0 | 0.00 | 0.00 | 0.00 | 39 | |
| 20260505153241 | 60 | 255 | 0.0 | 0.0 | 0.00 | 0.00 | 0.00 | 39 | |
| 20260505152908 | 60 | 255 | 0.0 | 0.0 | 0.00 | 0.00 | 0.00 | 39 | |
| 20260505152728 | 60 | 243 | 0.0 | 0.0 | 0.00 | 0.00 | 0.00 | 39 | |
| 20260505152408 | 60 | 243 | 0.0 | 0.0 | 0.00 | 0.00 | 0.00 | 39 | |
| 20260505152240 | 60 | 256 | 0.0 | 0.0 | 0.00 | 0.00 | 0.00 | 39 | |
| 20260505151909 | 60 | 256 | 0.0 | 0.0 | 0.00 | 0.00 | 0.00 | 39 | |
| 20260505151711 | 59 | 252 | 0.0 | 0.0 | 0.00 | 0.00 | 0.00 | 39 | |
| 20260505151408 | 59 | 252 | 0.0 | 0.0 | 0.00 | 0.00 | 0.00 | 39 | |
| 20260505151312 | 59 | 85 | 0.0 | 0.0 | 0.00 | 0.00 | 0.00 | 39 | |
| 20260505150908 | 59 | 85 | 0.0 | 0.0 | 0.00 | 0.00 | 0.00 | 39 | |
| 20260505150733 | 58 | 152 | 0.0 | 0.0 | 0.00 | 0.00 | 0.00 | 39 | |
| 20260505150408 | 58 | 152 | 0.0 | 0.0 | 0.00 | 0.00 | 0.00 | 39 | |
| 20260505140617 | 56 | 81 | 0.0 | 0.0 | 0.00 | 0.00 | 0.00 | 40 | |
| 20260505140408 | 56 | 81 | 0.0 | 0.0 | 0.00 | 0.00 | 0.00 | 40 | |
| 20260505140237 | 56 | 62 | 0.0 | 2.0 | 0.00 | 0.00 | 0.00 | 40 | |
| 20260505130219 | 55 | 341 | 0.0 | 0.0 | 0.00 | 0.00 | 0.00 | 38 | |
| 20260505124908 | 55 | 227 | 0.0 | 0.0 | 0.00 | 0.00 | 0.00 | 38 | |
| 20260505124638 | 55 | 225 | 0.0 | 0.0 | 0.00 | 0.00 | 0.00 | 38 | |
| 20260505124408 | 55 | 225 | 0.0 | 0.0 | 0.00 | 0.00 | 0.00 | 38 | |
| 20260505124220 | 55 | 255 | 0.0 | 2.0 | 0.00 | 0.00 | 0.00 | 39 | |
| 20260505123908 | 55 | 255 | 0.0 | 2.0 | 0.00 | 0.00 | 0.00 | 39 | |
| 20260505123637 | 55 | 90 | 0.0 | 2.0 | 0.00 | 0.00 | 0.00 | 41 | |
| 20260505123408 | 55 | 90 | 0.0 | 2.0 | 0.00 | 0.00 | 0.00 | 41 | |
| 20260505123243 | 55 | 107 | 0.0 | 3.0 | 0.00 | 0.00 | 0.00 | 42 | |
| 20260505122908 | 55 | 107 | 0.0 | 3.0 | 0.00 | 0.00 | 0.00 | 42 | |
| 20260505122659 | 55 | 193 | 0.0 | 3.0 | 0.00 | 0.00 | 0.00 | 38 | |
| 20260505122408 | 55 | 193 | 0.0 | 3.0 | 0.00 | 0.00 | 0.00 | 38 | |
| 20260505122252 | 55 | 211 | 0.0 | 0.0 | 0.00 | 0.00 | 0.00 | 38 | |
| 20260505121908 | 55 | 211 | 0.0 | 0.0 | 0.00 | 0.00 | 0.00 | 38 | |
| 20260505121754 | 55 | 181 | 0.0 | 0.0 | 0.00 | 0.00 | 0.00 | 38 | |
| 20260505121408 | 55 | 181 | 0.0 | 0.0 | 0.00 | 0.00 | 0.00 | 38 | |
| 20260505121345 | 55 | 183 | 0.0 | 0.0 | 0.00 | 0.00 | 0.00 | 38 | |
| 20260505120908 | 55 | 183 | 0.0 | 0.0 | 0.00 | 0.00 | 0.00 | 38 | |
| 20260505120704 | 55 | 237 | 0.0 | 0.0 | 0.00 | 0.00 | 0.00 | 38 | |
| 20260505120408 | 55 | 237 | 0.0 | 0.0 | 0.00 | 0.00 | 0.00 | 38 | |
| 20260505120251 | 55 | 22 | 0.0 | 0.0 | 0.00 | 0.00 | 0.00 | 37 | |
| 20260505115908 | 55 | 22 | 0.0 | 0.0 | 0.00 | 0.00 | 0.00 | 37 | |
| 20260505115658 | 55 | 37 | 0.0 | 0.0 | 0.00 | 0.00 | 0.00 | 37 | |
| 20260505115511 | 55 | 298 | 0.0 | 0.0 | 0.00 | 0.00 | 0.00 | 38 | |
| 20260505115408 | 55 | 37 | 0.0 | 0.0 | 0.00 | 0.00 | 0.00 | 37 | |
| 20260505114909 | 55 | 298 | 0.0 | 0.0 | 0.00 | 0.00 | 0.00 | 38 | |
| 20260505114802 | 55 | 45 | 0.0 | 0.0 | 0.00 | 0.00 | 0.00 | 37 | |
| 20260505114409 | 55 | 45 | 0.0 | 0.0 | 0.00 | 0.00 | 0.00 | 37 | |
| 20260505114256 | 55 | 60 | 0.0 | 0.0 | 0.00 | 0.00 | 0.00 | 37 | |
| 20260505113910 | 55 | 60 | 0.0 | 0.0 | 0.00 | 0.00 | 0.00 | 37 | |
| 20260505113637 | 55 | 202 | 0.0 | 0.0 | 0.00 | 0.00 | 0.00 | 38 | |
| 20260505113408 | 55 | 202 | 0.0 | 0.0 | 0.00 | 0.00 | 0.00 | 38 | |
| 20260505113239 | 55 | 160 | 0.0 | 0.0 | 0.00 | 0.00 | 0.00 | 38 | |
| 20260505112908 | 55 | 160 | 0.0 | 0.0 | 0.00 | 0.00 | 0.00 | 38 | |
| 20260505112731 | 55 | 300 | 0.0 | 0.0 | 0.00 | 0.00 | 0.00 | 38 | |
| 20260505112408 | 55 | 300 | 0.0 | 0.0 | 0.00 | 0.00 | 0.00 | 38 | |
| 20260505112328 | 55 | 97 | 0.0 | 0.0 | 0.00 | 0.00 | 0.00 | 39 | |
| 20260505111908 | 55 | 97 | 0.0 | 0.0 | 0.00 | 0.00 | 0.00 | 39 | |
| 20260505111755 | 55 | 256 | 0.0 | 0.0 | 0.00 | 0.00 | 0.00 | 38 | |
| 20260505111408 | 55 | 256 | 0.0 | 0.0 | 0.00 | 0.00 | 0.00 | 38 | |
| 20260505111321 | 55 | 85 | 0.0 | 0.0 | 0.00 | 0.00 | 0.00 | 39 | |
| 20260505110908 | 55 | 85 | 0.0 | 0.0 | 0.00 | 0.00 | 0.00 | 39 | |
| 20260505110707 | 55 | 193 | 0.0 | 0.0 | 0.00 | 0.00 | 0.00 | 38 | |
| 20260505110408 | 55 | 193 | 0.0 | 0.0 | 0.00 | 0.00 | 0.00 | 38 | |
| 20260505110247 | 55 | 354 | 0.0 | 0.0 | 0.00 | 0.00 | 0.00 | 37 | |
| 20260505101908 | 55 | 353 | 0.0 | 2.0 | 0.00 | 0.00 | 0.00 | 37 | |
| 20260505101854 | 55 | 8 | 0.0 | 2.0 | 0.00 | 0.00 | 0.00 | 37 | |
| 20260505101408 | 55 | 8 | 0.0 | 2.0 | 0.00 | 0.00 | 0.00 | 37 | |
| 20260505101327 | 55 | 2 | 0.0 | 0.0 | 0.00 | 0.00 | 0.00 | 37 | |
| 20260505100909 | 55 | 2 | 0.0 | 0.0 | 0.00 | 0.00 | 0.00 | 37 | |
| 20260505100720 | 55 | 15 | 0.0 | 0.0 | 0.00 | 0.00 | 0.00 | 37 | |
| 20260505100408 | 55 | 15 | 0.0 | 0.0 | 0.00 | 0.00 | 0.00 | 37 | |
| 20260505100221 | 55 | 68 | 0.0 | 1.0 | 0.00 | 0.00 | 0.00 | 38 | |
| 20260505095908 | 55 | 68 | 0.0 | 1.0 | 0.00 | 0.00 | 0.00 | 38 | |
| 20260505095747 | 55 | 174 | 0.0 | 6.0 | 0.00 | 0.00 | 0.00 | 38 | |
| 20260505095422 | 55 | 196 | 2.0 | 6.0 | 0.00 | 0.00 | 0.00 | 39 | |
| 20260505095408 | 55 | 174 | 0.0 | 6.0 | 0.00 | 0.00 | 0.00 | 38 | |
| 20260505094908 | 55 | 196 | 2.0 | 6.0 | 0.00 | 0.00 | 0.00 | 39 | |
| 20260505094714 | 55 | 181 | 1.0 | 6.0 | 0.00 | 0.00 | 0.00 | 40 | |
| 20260505094408 | 55 | 181 | 1.0 | 6.0 | 0.00 | 0.00 | 0.00 | 40 | |
| 20260505094257 | 55 | 187 | 2.0 | 6.0 | 0.00 | 0.00 | 0.00 | 40 | |
| 20260505093908 | 55 | 187 | 2.0 | 6.0 | 0.00 | 0.00 | 0.00 | 40 | |
| 20260505093624 | 55 | 182 | 1.0 | 6.0 | 0.00 | 0.00 | 0.00 | 40 | |
| 20260505093408 | 55 | 182 | 1.0 | 6.0 | 0.00 | 0.00 | 0.00 | 40 | |
| 20260505093238 | 55 | 173 | 2.0 | 6.0 | 0.00 | 0.00 | 0.00 | 40 | |
| 20260505092909 | 55 | 173 | 2.0 | 6.0 | 0.00 | 0.00 | 0.00 | 40 | |
| 20260505092727 | 55 | 188 | 2.0 | 5.0 | 0.00 | 0.00 | 0.00 | 41 | |
| 20260505092408 | 55 | 188 | 2.0 | 5.0 | 0.00 | 0.00 | 0.00 | 41 | |
| 20260505092239 | 55 | 147 | 1.0 | 6.0 | 0.00 | 0.00 | 0.00 | 43 | |
| 20260505091908 | 55 | 147 | 1.0 | 6.0 | 0.00 | 0.00 | 0.00 | 43 | |
| 20260505091657 | 55 | 141 | 1.0 | 6.0 | 0.00 | 0.00 | 0.00 | 43 | |
| 20260505091411 | 55 | 141 | 1.0 | 6.0 | 0.00 | 0.00 | 0.00 | 43 | |
| 20260505091327 | 55 | 146 | 1.0 | 5.0 | 0.00 | 0.00 | 0.00 | 42 | |
| 20260505090909 | 55 | 146 | 1.0 | 5.0 | 0.00 | 0.00 | 0.00 | 42 | |
| 20260505090613 | 55 | 143 | 1.0 | 6.0 | 0.00 | 0.00 | 0.00 | 42 | |
| 20260505090408 | 55 | 143 | 1.0 | 6.0 | 0.00 | 0.00 | 0.00 | 42 | |
| 20260505090242 | 55 | 144 | 1.0 | 6.0 | 0.00 | 0.00 | 0.00 | 42 | |
| 20260505085911 | 55 | 144 | 1.0 | 6.0 | 0.00 | 0.00 | 0.00 | 42 | |
| 20260505085737 | 55 | 131 | 0.0 | 4.0 | 0.00 | 0.00 | 0.00 | 43 | |
| 20260505085408 | 55 | 131 | 0.0 | 4.0 | 0.00 | 0.00 | 0.00 | 43 | |
| 20260505085312 | 55 | 125 | 0.0 | 4.0 | 0.00 | 0.00 | 0.00 | 42 | |
| 20260505084908 | 55 | 125 | 0.0 | 4.0 | 0.00 | 0.00 | 0.00 | 42 | |
| 20260505084250 | 55 | 144 | 0.0 | 4.0 | 0.00 | 0.00 | 0.00 | 41 | |
| 20260505083909 | 55 | 144 | 0.0 | 4.0 | 0.00 | 0.00 | 0.00 | 41 | |
| 20260505083745 | 55 | 153 | 0.0 | 3.0 | 0.00 | 0.00 | 0.00 | 39 | |
| 20260505083408 | 55 | 153 | 0.0 | 3.0 | 0.00 | 0.00 | 0.00 | 39 | |
| 20260505083239 | 55 | 125 | 0.0 | 0.0 | 0.00 | 0.00 | 0.00 | 39 | |
| 20260505082908 | 55 | 125 | 0.0 | 0.0 | 0.00 | 0.00 | 0.00 | 39 | |
| 20260505082755 | 55 | 102 | 0.0 | 0.0 | 0.00 | 0.00 | 0.00 | 40 | |
| 20260505082408 | 55 | 102 | 0.0 | 0.0 | 0.00 | 0.00 | 0.00 | 40 | |
| 20260505082311 | 55 | 100 | 0.0 | 0.0 | 0.00 | 0.00 | 0.00 | 41 | |
| 20260505081908 | 55 | 100 | 0.0 | 0.0 | 0.00 | 0.00 | 0.00 | 41 | |
| 20260505081756 | 55 | 107 | 0.0 | 0.0 | 0.00 | 0.00 | 0.00 | 40 | |
| 20260505081408 | 55 | 107 | 0.0 | 0.0 | 0.00 | 0.00 | 0.00 | 40 | |
| 20260505081257 | 55 | 121 | 0.0 | 0.0 | 0.00 | 0.00 | 0.00 | 40 | |
| 20260505080909 | 55 | 121 | 0.0 | 0.0 | 0.00 | 0.00 | 0.00 | 40 | |
| 20260505080700 | 55 | 98 | 0.0 | 0.0 | 0.00 | 0.00 | 0.00 | 39 |